EDT,Max TemperatureF,Mean TemperatureF,Min TemperatureF,Max Dew PointF,MeanDew PointF,Min DewpointF,Max Humidity, Mean Humidity, Min Humidity, Max Sea Level PressureIn, Mean Sea Level PressureIn, Min Sea Level PressureIn, Max VisibilityMiles, Mean VisibilityMiles, Min VisibilityMiles, Max Wind SpeedMPH, Mean Wind SpeedMPH, Max Gust SpeedMPH,PrecipitationIn, CloudCover, Events, WindDirDegrees
2012-8-1,78,71,64,70,68,61,94,87,76,29.92,29.89,29.85,9,7,5,12,3,,0.00,3,,156
2012-8-2,80,76,71,72,70,69,96,90,71,29.92,29.86,29.83,6,4,0,9,3,,0.00,5,Fog,195
2012-8-3,82,76,69,74,71,68,94,88,74,30.10,29.99,29.93,6,4,0,10,2,,0.00,0,Fog,215
2012-8-4,82,76,71,75,73,70,100,92,76,30.22,30.18,30.12,7,2,0,12,3,,0.00,6,Fog,172
2012-8-5,82,77,73,74,72,70,100,91,74,30.22,30.14,29.97,10,4,0,14,6,23,0.00,6,Fog-Rain-Thunderstorm,183
2012-8-6,86,76,66,73,68,57,94,78,38,29.98,29.96,29.92,10,7,2,14,8,22,0.22,5,Rain-Thunderstorm,285
2012-8-7,75,68,62,68,63,57,90,77,62,30.01,29.99,29.97,10,10,8,8,3,,0.00,0,,184
2012-8-8,80,72,64,70,67,62,93,83,69,30.00,29.98,29.95,10,8,6,9,2,,0.00,2,,176
2012-8-9,82,76,72,73,72,70,97,89,74,29.97,29.94,29.90,8,4,0,12,2,,0.00,5,Fog,161
2012-8-10,82,76,73,74,73,71,94,91,79,29.91,29.86,29.78,6,4,0,31,9,40,0.55,6,Fog-Rain-Thunderstorm,162
2012-8-11,80,76,73,74,73,69,94,90,78,29.93,29.86,29.81,8,4,1,16,6,20,0.04,5,Rain,182
2012-8-12,81,77,73,73,71,70,94,86,74,29.93,29.91,29.88,7,6,4,13,8,,0.09,4,Rain,189
2012-8-13,80,72,66,70,66,62,93,75,58,29.97,29.93,29.91,10,8,5,14,3,,0.00,1,,239
2012-8-14,81,72,64,70,66,62,94,79,54,29.96,29.94,29.91,10,7,2,10,2,,0.00,0,,187
2012-8-15,75,70,66,72,67,64,94,86,76,29.93,29.88,29.83,10,7,0,18,5,30,0.15,4,Fog-Rain-Thunderstorm,82
2012-8-16,84,74,64,68,65,61,97,79,44,29.86,29.84,29.82,10,7,1,13,4,,0.00,2,,322
2012-8-17,82,72,64,70,66,61,90,78,62,29.86,29.83,29.79,9,7,5,12,5,,0.00,0,,222
2012-8-18,73,66,60,66,62,59,100,90,76,29.91,29.88,29.82,10,4,0,15,5,18,0.54,6,Fog-Rain,3
2012-8-19,77,65,55,60,55,51,93,69,43,29.96,29.93,29.90,10,10,9,12,5,,0.00,0,,347
2012-8-20,73,67,61,62,59,55,90,75,53,29.94,29.90,29.85,10,9,7,8,3,,0.00,1,,187
2012-8-21,78,71,64,64,62,58,90,73,54,30.09,30.00,29.92,10,9,8,15,3,,0.00,2,,259
2012-8-22,78,70,62,64,61,57,93,74,50,30.14,30.12,30.09,10,8,7,9,3,,0.00,0,,203
2012-8-23,78,69,61,70,65,59,97,83,68,30.16,30.13,30.11,9,7,2,9,3,,0.00,0,,214
2012-8-24,81,72,64,68,65,61,94,81,52,30.20,30.15,30.12,8,5,2,7,1,,0.00,0,,195
2012-8-25,79,72,66,68,63,57,94,78,48,30.30,30.26,30.20,10,6,2,15,5,,0.00,2,,74
2012-8-26,75,68,60,64,62,59,94,81,60,30.33,30.29,30.24,10,9,6,12,5,,0.00,0,,76
2012-8-27,80,70,59,72,66,57,94,85,70,30.23,30.11,29.95,10,8,6,14,5,,0.00,3,,172
2012-8-28,86,80,72,72,68,59,94,75,43,29.94,29.82,29.74,10,7,4,17,8,26,0.01,4,Rain,260
2012-8-29,77,67,57,60,52,45,88,59,33,30.00,29.94,29.86,10,10,9,13,7,18,0.00,0,,350
2012-8-30,75,64,54,66,55,51,90,67,46,30.07,30.03,30.00,10,10,9,16,5,20,0.00,0,,246
2012-8-31,86,74,64,68,62,56,84,64,41,30.02,29.94,29.85,10,8,5,15,7,21,0.00,0,,257